STARLINK-1702 (46551 NORAD) Tracking and Keplerian Element Data

This shows tracking and keplerian element data for the satellite.

Feedback or suggestion? Click here.




ElementValue
Catalog46551
NameSTARLINK-1702
Epoch Orbit877
Epoch Day331.16668981
Epoch Year2020
RAAN192.3845
Inclination52.988
Eccentricity0.0002114
Argument of Perigee70.5201
Mean Anonmoly115.1998
Mean Motion15.67851922
Decay Rate0.00021164
L11 46551U 20070V 20331.16668981 .00021164 00000-0 19316-3 0 9991
L22 46551 52.9880 192.3845 0002114 70.5201 115.1998 15.67851922 8772

Live tracking and technical data element details for STARLINK-1702 (NORAD 46551). STARLINK-1702 can be tracked NOW for your location showing map with azimuth and elevation plus other details from your city location.

Track the satellite on the map from your city or location and see movement details for azimuth, elevation, latitude, longitude, range, height, and movement on the map or in text.







IsCatalogInMostPopularTable: catalog: 46551, numindb: 10
Update: records affected: 1



GetName: 46551 STARLINK-1702

Hit Count: updated at: Thu, 26 Nov 2020 23:55:19 GMT